NW Arkansas Airport, AR

6:27 PM CDT on April 23, 2017 (GMT -0500)
Northwest Arkansas Regional

Weather History for KXNA - February, 2013

Change the Weather History Date:

Tuesday, February 26, 2013

  Actual Average (KVBT) Record (KVBT)
Temperature  
Mean Temperature 32 °F -  
Max Temperature 35 °F 52 °F 72 °F (1961)
Min Temperature 30 °F 30 °F 2 °F (1960)
Degree Days  
Heating Degree Days 32    
Moisture  
Dew Point 32 °F    
Average Humidity 97    
Maximum Humidity 100    
Minimum Humidity 92    
Precipitation  
Precipitation 0.04 in - - ()
Sea Level Pressure  
Sea Level Pressure 29.58 in    
Wind  
Wind Speed 11 mph (NW)    
Max Wind Speed 16 mph    
Max Gust Speed 25 mph    
Visibility 5 miles    
Events Fog , Snow    
Averages and records for this station are not official NWS values.
T = Trace of Precipitation, MM = Missing Value Source: NWS Daily Summary

Daily Weather History Graph

Daily Weather History Graph

Search for Another Location

Airport or City:

Trip Planner

Search our weather history database for the weather conditions in past years. The results will help you decide how hot, cold, wet, or windy it might be!

Date:

Astronomy

Feb. 26, 2013 Rise Set
Actual Time 6:51 AM CST 6:09 PM CST
Civil Twilight 6:25 AM CST 6:35 PM CST
Nautical Twilight 5:55 AM CST 7:05 PM CST
Astronomical Twilight 5:25 AM CST 7:35 PM CST
Moon 7:22 PM CST (2/26) 6:57 AM CST (2/26)
Length of Visible Light 12h 10m
Length of Day
11h 18m
Full, 99% of the Moon is Illuminated
Feb 26
Full
Mar 4
Last Quarter
Mar 11
New
Mar 19
First Quarter
Mar 27
Full

Hourly Weather History & Observations

Time (CST) Temp. Windchill Dew Point Humidity Pressure Visibility Wind Dir Wind Speed Gust Speed Precip Events Conditions
12:01 AM 35.6 °F 29.2 °F 35.6 °F 100% 29.40 in 9.0 mi NNE 8.1 mph - N/A   Overcast
12:10 AM 35.6 °F 28.0 °F 35.6 °F 100% 29.40 in 10.0 mi NE 10.4 mph - N/A   Overcast
12:53 AM 34.0 °F 26.0 °F 34.0 °F 100% 29.41 in 7.0 mi NNE 10.4 mph - N/A   Overcast
1:53 AM 33.1 °F 25.5 °F 33.1 °F 100% 29.40 in 6.0 mi North 9.2 mph - N/A   Overcast
2:53 AM 33.1 °F 23.9 °F 33.1 °F 100% 29.38 in 4.0 mi North 12.7 mph - 0.00 in Snow Light Snow
3:53 AM 32.0 °F 23.6 °F 32.0 °F 100% 29.38 in 2.5 mi NNW 10.4 mph - 0.01 in Snow Light Snow
4:16 AM 32.0 °F 24.2 °F 32.0 °F 100% 29.37 in 1.5 mi NNW 9.2 mph - 0.00 in Snow Light Snow
4:30 AM 32.0 °F 23.6 °F 32.0 °F 100% 29.37 in 2.5 mi NW 10.4 mph - 0.00 in Snow Light Snow
4:40 AM 32.0 °F 23.0 °F 32.0 °F 100% 29.37 in 4.0 mi NW 11.5 mph 18.4 mph 0.00 in Snow Light Snow
4:53 AM 32.0 °F 23.6 °F 32.0 °F 100% 29.39 in 6.0 mi NW 10.4 mph - 0.00 in Snow Light Snow
5:53 AM 32.0 °F 22.5 °F 32.0 °F 100% 29.42 in 2.5 mi NW 12.7 mph - 0.00 in Snow Light Snow
6:05 AM 32.0 °F 23.0 °F 32.0 °F 100% 29.41 in 1.8 mi NW 11.5 mph - 0.00 in Snow Light Snow
6:12 AM 32.0 °F 23.0 °F 32.0 °F 100% 29.41 in 2.0 mi NW 11.5 mph 18.4 mph 0.00 in Snow Light Snow
6:46 AM 30.2 °F 20.2 °F 30.2 °F 100% 29.42 in 1.2 mi NW 12.7 mph - 0.00 in Snow Light Snow
6:53 AM 30.9 °F 21.2 °F 30.9 °F 100% 29.44 in 0.8 mi NW 12.7 mph - 0.01 in Snow Light Snow
7:51 AM 30.2 °F 20.2 °F 30.2 °F 100% 29.46 in 0.2 mi NW 12.7 mph 20.7 mph 0.02 in Fog , Snow Snow
7:53 AM 30.9 °F 21.2 °F 30.9 °F 100% 29.48 in 0.5 mi NW 12.7 mph - 0.02 in Fog , Snow Snow
8:13 AM 32.0 °F 22.1 °F 32.0 °F 100% 29.48 in 2.0 mi NW 13.8 mph 20.7 mph 0.00 in Snow Light Snow
8:16 AM 32.0 °F 21.6 °F 32.0 °F 100% 29.48 in 4.0 mi NW 15.0 mph 25.3 mph 0.00 in Snow Light Snow
8:53 AM 32.0 °F 22.1 °F 32.0 °F 100% 29.51 in 10.0 mi NW 13.8 mph 25.3 mph 0.00 in   Overcast
9:53 AM 32.0 °F 21.6 °F 32.0 °F 100% 29.55 in 10.0 mi NW 15.0 mph - N/A   Overcast
10:53 AM 32.0 °F 22.1 °F 30.9 °F 96% 29.58 in 8.0 mi NW 13.8 mph 20.7 mph N/A   Overcast
11:53 AM 33.1 °F 23.0 °F 30.9 °F 92% 29.61 in 7.0 mi NW 15.0 mph 23.0 mph N/A   Overcast
12:53 PM 33.1 °F 22.6 °F 30.9 °F 92% 29.63 in 7.0 mi WNW 16.1 mph 23.0 mph N/A   Overcast
1:53 PM 33.1 °F 23.9 °F 30.9 °F 92% 29.65 in 6.0 mi WNW 12.7 mph 19.6 mph N/A   Overcast
2:53 PM 33.1 °F 23.0 °F 30.9 °F 92% 29.67 in 6.0 mi NW 15.0 mph - N/A   Overcast
3:53 PM 33.1 °F 25.5 °F 30.9 °F 92% 29.70 in 7.0 mi WNW 9.2 mph 18.4 mph N/A   Overcast
4:53 PM 33.1 °F 23.4 °F 30.9 °F 92% 29.74 in 6.0 mi WNW 13.8 mph - N/A   Overcast
5:53 PM 33.1 °F 24.4 °F 30.9 °F 92% 29.78 in 5.0 mi WNW 11.5 mph - N/A   Overcast
6:53 PM 33.1 °F 23.9 °F 32.0 °F 96% 29.80 in 6.0 mi WNW 12.7 mph 17.3 mph N/A   Overcast
7:22 PM 33.8 °F 27.7 °F 32.0 °F 93% 29.78 in 5.0 mi WNW 6.9 mph - N/A   Overcast
7:53 PM 33.1 °F 24.4 °F 32.0 °F 96% 29.82 in 5.0 mi WNW 11.5 mph 17.3 mph N/A   Overcast
8:53 PM 33.1 °F 24.9 °F 32.0 °F 96% 29.84 in 5.0 mi WNW 10.4 mph - N/A   Overcast
9:29 PM 33.8 °F 25.8 °F 32.0 °F 93% 29.84 in 6.0 mi WNW 10.4 mph - N/A   Overcast
9:37 PM 33.8 °F 26.4 °F 32.0 °F 93% 29.85 in 6.0 mi WNW 9.2 mph - N/A   Overcast
9:45 PM 33.8 °F 25.8 °F 32.0 °F 93% 29.85 in 6.0 mi WNW 10.4 mph - N/A   Overcast
9:53 PM 33.1 °F 24.9 °F 32.0 °F 96% 29.88 in 6.0 mi WNW 10.4 mph - N/A   Overcast
10:53 PM 33.1 °F 24.9 °F 30.9 °F 92% 29.88 in 7.0 mi WNW 10.4 mph - N/A   Overcast
11:53 PM 33.1 °F 26.9 °F 30.9 °F 92% 29.88 in 6.0 mi WNW 6.9 mph - N/A   Overcast